Starlink 34590

operational
NORAD ID: 64675 Int'l Des: 2025-139 Owner: SPXS Country: US Constellation: starlink
LEOCIRCULAR

Über Starlink 34590

Beschreibung wird geladen...

Live-Position

3D-Globus wird geladen...

Nächste Überflüge

Höhenverlauf

Altitude vs Time

uPlot chart will show altitude changes over time

Zweizeiliger Elementsatz

1 64675U 25139M 26095.43522558 .00046082 00000-0 15593-2 0 9999
2 64675 53.1595 3.1885 0001142 126.9343 233.1762 15.30180843 44374
Epoch: 5. Apr. 2026 • Age: 8 hours

Aktueller Status

Höhe 475.3 km
Geschwindigkeit 7.63 km/s
Subsatellitenpunkt 23.81°N, 44.23°E
Startdatum 28. Juni 2025
Alter 0.7 years
Typ internet

Technische Details

Klassifizierung Payload
Masse 575.00 kg
Trockenmasse 530.00 kg
Gesamtmasse 575.00 kg
Länge 0.30 m
Durchmesser 4.10 m
Spannweite 29.00 m
Form Box + pan
Hersteller SPXS
Bus-Typ Starlink V2MO
Phasenstatus In Orbit
Besitzer/Staat SPXS/US

Große Konstellationen

Loading constellations...